Location: Banksville Park
(38.5557°N, 75.1182°W)
Time: 12:51:10
(UTC+00:00)

USA 186 - Pass Details

Date: 19 September 2020
Orbit: 261 x 425 km, 96.9° (Epoch: 12 October)

Event Time Altitude Azimuth Distance (km) Brightness Sun altitude
Exits shadow 00:55:26 51° 283° (WNW) 510 2.5 -22.3°
Drops below altitude 10° 00:58:17 10° 339° (NNW) 1,482 5.0 -22.8°
Sets 01:00:22 0° 345° (NNW) 2,369 6.1 -23.2°
